{"data":{"norad_id":58252,"epoch":"2026-05-24T21:51:27.967104Z","epoch_age_seconds":76659,"freshness":"FRESH","line1":"1 58252U 23171Y   26144.91074036 -.00008700  00000+0 -30712-3 0  9995","line2":"2 58252  42.9995 214.5862 0000036  52.6593 307.4262 15.27572160141397","mean_motion":15.2757216,"eccentricity":3.6e-6,"inclination_deg":42.9995,"raan_deg":214.5862,"arg_perigee_deg":52.6593,"mean_anomaly_deg":307.4262,"bstar":-0.00030712,"rev_number":14139,"period_min":94.267232521441,"perigee_km":483.04787156602,"apogee_km":483.09727227494,"semimajor_km":6861.2095719205,"source":"CELESTRAK","updated_at":"2026-05-25T13:38:18.584087Z"}}